FENGYUN 1C DEB, 41824

Orbit data source: Space-Track

FENGYUN 1C DEB, 41824 is space debris in SSO originally from a launch on Mon, 10 May 1999 UTC launched from the Taiyaun Space Center, China (TSC). Fengyun 1C debris stems from the Chinese weather satellite Fengyun-1C, which was intentionally destroyed by a Chinese anti-satellite missile in 2007. This event dramatically increased the amount of space debris, with thousands of trackable fragments posing hazards to satellites and human spaceflight. The Fengyun 1C debris cloud has become a focal point in discussions about space sustainability and the need for international regulations to prevent the creation of new debris.

Loading next visibility...
Identifier
41824, 1999-025EYB
Orbit
SSO
Country
Flag of CNCN / PRC
Related business
Manufacturer
Unknown
Mission
Spacecraft
Bus & Motor
Unknown
Mass
Unknown
Launch date (UTC)
1999-05-10 (27 years ago)
Launch vehicle
Unknown
Launch site
Taiyaun Space Center, China (TSC)
Object type
Payload
Rocket body
Debris
Shape & HBR
Unknown shape, 0.1 m
Radar Cross Section
Small (<0.1 m²)

Expand to show TLE details & history
Last TLE update: 11 hours ago

TLE from 11 hours ago
0 FENGYUN 1C DEB
1 41824U 99025EYB 26256.44051614  .00001982  00000-0  83866-3 0  9994
2 41824  98.7126 323.7349 0057329 150.2673 210.1785 14.25735601512720
Epoch: 2026-09-13T10:34Z
TLE epoch observation values (Epoch: 2026-09-13T10:34:20.594Z)
Latitude
-0.00005°
Longitude
172.71397°
Altitude
844.613 km
Speed
7.412 km/s
True Right ascension
21h 34m 56s
True Declination
0° 00' 00"
Sunlit
Object was in full shadow at epoch
Visualization orbit readout
Latitude
Unknown
Longitude
Unknown
Altitude
Unknown
Speed
Unknown
Apparent Right ascension
Unknown
Apparent Declination
Unknown
Sunlit
N/A
Visualization observer readout
Local Sidereal Time
14:22:20
Azimuth
Unknown
Elevation
Unknown
Doppler factor
Unknown
Orbital elements
Apogee altitude
844.341 km
Perigee altitude
762.002 km
Semi-major axis
7,181.308 km
Eccentricity
0.00573
Inclination
98.7126°
RAAN
323.7349°
Arg. of periapsis
150.2673°
True anomaly
209.85029°
Mean anomaly
210.1785°
Eccentric anomaly
210.01419°
Mean motion
3.56646 °/min
Orbital period
100.94 mins
BSTAR
0.00083866
Loading maneuver chart data...
Computing Atmospheric mass density...
Loading historical data...
Loading historical data...
Loading historical data...
Loading historical data...
Loading historical data...
Loading historical data...
Loading historical data...

Documentation

Showing up to 5 results
|